Tracking 19574 objects as of 16-Feb-2019
HD Live streaming from Space Station
objects crossing your sky now

TISAT 1

Track TISAT 1 now!
10-day predictions
TISAT 1 is classified as:


NORAD ID: 36799
Int'l Code: 2010-035E
Perigee: 592.6 km
Apogee: 611.3 km
Inclination: 98.1 °
Period: 96.6 minutes
Semi major axis: 6972 km
RCS: 0.056 m2 (small)
Launch date: July 12, 2010
Source: (SWTZ)
Launch site: SRIHARIKOTA (SRI)

Uplink (MHz): 145.980
Downlink (MHz): 437.305
Beacon (MHz): 145.980
Mode: FM AFSK PSK CW
Call sign: HB9DE
Status: Active

aabbcc
Your satellite tracking list
Your tracking list is empty




NASA's NSSDC Master Catalog

Two Line Element Set (TLE):
1 36799U 10035E   19046.94243830  .00000388  00000-0  45285-4 0  9993
2 36799  98.1361 195.1665 0013454 125.8835 234.3633 14.91004306466475
Source of the keplerian elements: Caltech